This demonstration page uses our WeatherBlox Daily Observations layout. Learn more.

Left ArrowRight Arrow

39.08367, -84.50855

Hourly Observations for July 19, 2020

Temp ( °F °C ) Dew Point ( °F °C ) Humidity (%) Winds ( mph kmh ) Pressure ( in mb ) Visibility ( mi km ) Precip ( " mm )
12:53 am 00:53 Clear 76 24.4 72 22.2 88 88 N N/A 30.01 1016 10 16 N/A
1:53 am 01:53 Clear 75 23.9 72 22.2 90 90 N N/A 29.99 1016 9 14 N/A
2:53 am 02:53 Clear with Mist and Fog 74 23.3 72 22.2 94 94 N N/A 29.98 1015 6 10 N/A
3:53 am 03:53 Clear 74 23.3 71 21.7 91 91 N N/A 29.97 1015 9 14 N/A
4:53 am 04:53 Clear 73 22.8 71 21.7 94 94 N N/A 29.98 1015 9 14 N/A
5:48 am 05:48 Clear with Mist and Fog 72 22 70 21 94 94 N N/A 29.98 1015 2 3 N/A
5:53 am 05:53 Clear with Mist and Fog 72 22.2 71 21.7 97 97 N N/A 29.99 1016 3 4 N/A
6:02 am 06:02 Clear 72 22.2 71 21.7 97 97 N N/A 29.98 1015 7 11 N/A
6:53 am 06:53 Sunny 72 22.2 71 21.7 97 97 N N/A 30.00 1016 10 16 N/A
7:53 am 07:53 Sunny 78 25.6 73 22.8 85 85 SSW 5 7 29.99 1016 10 16 N/A
8:53 am 08:53 Sunny 83 28.3 73 22.8 72 72 SW 10 17 29.98 1015 10 16 N/A
9:53 am 09:53 Sunny 86 30 73 22.8 65 65 SW 10 17 29.98 1015 10 16 N/A
10:53 am 10:53 Partly Cloudy 88 31.1 73 22.8 61 61 SW 18 30 29.96 1015 10 16 N/A
11:53 am 11:53 Mostly Sunny 90 32.2 72 22.2 56 56 WSW 14 22 29.97 1015 10 16 N/A
12:53 pm 12:53 Partly Cloudy 91 32.8 72 22.2 54 54 W 16 26 29.98 1015 10 16 N/A
1:53 pm 13:53 Mostly Cloudy 93 33.9 73 22.8 52 52 WSW 15 24 29.95 1014 10 16 N/A
2:53 pm 14:53 Partly Cloudy 92 33.3 72 22.2 52 52 WSW 12 19 29.95 1014 10 16 N/A
3:53 pm 15:53 Mostly Cloudy 91 32.8 72 22.2 54 54 WSW 13 20 29.93 1014 10 16 N/A
4:53 pm 16:53 Sunny 93 33.9 72 22.2 50 50 WSW 15 24 29.91 1013 10 16 N/A
5:37 pm 17:37 Mostly Cloudy with Nearby Thunderstorms 88 31.1 69 20.6 54 54 NNW 25 41 29.94 1014 10 16 N/A
5:42 pm 17:42 Windy with Storms Likely 80 26.7 67 19.4 64 64 NNW 37 59 29.96 1014 3 4 0.08 2.03
5:48 pm 17:48 Mostly Cloudy with Strong Thunderstorms 72 22 70 21 94 94 NNW 25 41 29.99 1016 1 1 0.42 10.67
5:49 pm 17:49 Mostly Cloudy with Strong Thunderstorms 72 22.2 71 21.7 97 97 NW 26 43 30.00 1016 1 1 0.48 12.19
5:56 pm 17:56 Cloudy with Strong Thunderstorms 72 22.2 72 22.2 100 100 N 21 33 29.98 1015 1 1 0.45 11.43
6:18 pm 18:18 Cloudy with Thunderstorms 73 22.8 73 22.8 100 100 S 7 11 29.99 1016 7 11 0.68 17.27
6:53 pm 18:53 Partly Cloudy with Thunderstorms 74 23.3 74 23.3 100 100 S 12 19 29.95 1014 10 16 0.73 18.54
7:02 pm 19:02 Partly Cloudy with Light Rain 74 23.3 73 22.8 97 97 SSW 14 22 29.92 1013 10 16 0.01 0.25
7:53 pm 19:53 Sunny 77 25 74 23.3 90 90 N N/A 29.94 1014 10 16 0.01 0.25
8:53 pm 20:53 Sunny 75 23.9 73 22.8 94 94 S 5 7 29.95 1014 10 16 N/A
9:53 pm 21:53 Clear 75 23.9 73 22.8 94 94 N N/A 29.95 1014 10 16 N/A
10:53 pm 22:53 Clear 75 23.9 72 22.2 90 90 S 8 13 29.91 1013 10 16 N/A
11:53 pm 23:53 Clear 75 23.9 72 22.2 90 90 N N/A 29.94 1014 10 16 N/A

Powered by AerisWeather